Hourly Weather Chakhansur

Today, 8 August, Saturday

Time Temperature Precipitation Wind Pressure Humidity
00:00 +34°C° 0 mm 9 mps 708 mmHg 16%
01:00 +33°C° 0 mm 9 mps 707 mmHg 18%
02:00 +32°C° 0 mm 9 mps 707 mmHg 20%
03:00 +31°C° 0 mm 8 mps 707 mmHg 22%
04:00 +31°C° 0 mm 8 mps 708 mmHg 23%
05:00 +31°C° 0 mm 9 mps 708 mmHg 23%
06:00 +32°C° 0 mm 9 mps 708 mmHg 23%
07:00 +32°C° 0 mm 10 mps 709 mmHg 22%
08:00 +35°C° 0 mm 9 mps 709 mmHg 20%
09:00 +38°C° 0 mm 9 mps 709 mmHg 17%
10:00 +41°C° 0 mm 8 mps 710 mmHg 14%
11:00 +44°C° 0 mm 7 mps 709 mmHg 13%
12:00 +46°C° 0 mm 7 mps 709 mmHg 12%
13:00 +48°C° 0 mm 6 mps 709 mmHg 10%
14:00 +48°C° 0 mm 5 mps 708 mmHg 10%
15:00 +49°C° 0 mm 5 mps 708 mmHg 10%
16:00 +49°C° 0 mm 5 mps 707 mmHg 9%
17:00 +47°C° 0 mm 5 mps 707 mmHg 11%
18:00 +44°C° 0 mm 6 mps 707 mmHg 14%
19:00 +41°C° 0 mm 7 mps 707 mmHg 16%
20:00 +39°C° 0 mm 6 mps 707 mmHg 17%
21:00 +37°C° 0 mm 5 mps 708 mmHg 18%
22:00 +35°C° 0 mm 5 mps 708 mmHg 20%
23:00 +34°C° 0 mm 5 mps 708 mmHg 21%

Tomorrow, 9 August, Sunday

Time Temperature Precipitation Wind Pressure Humidity
00:00 +33°C° 0 mm 6 mps 708 mmHg 22%
01:00 +32°C° 0 mm 6 mps 708 mmHg 24%
02:00 +30°C° 0 mm 6 mps 708 mmHg 25%
03:00 +29°C° 0 mm 6 mps 708 mmHg 26%
04:00 +29°C° 0 mm 7 mps 707 mmHg 27%
05:00 +29°C° 0 mm 7 mps 708 mmHg 26%
06:00 +31°C° 0 mm 8 mps 709 mmHg 26%
07:00 +32°C° 0 mm 8 mps 709 mmHg 25%
08:00 +34°C° 0 mm 8 mps 709 mmHg 23%
09:00 +38°C° 0 mm 8 mps 710 mmHg 21%
10:00 +40°C° 0 mm 7 mps 710 mmHg 18%
11:00 +43°C° 0 mm 8 mps 710 mmHg 15%
12:00 +46°C° 0 mm 8 mps 709 mmHg 12%
13:00 +49°C° 0 mm 8 mps 709 mmHg 9%
14:00 +49°C° 0 mm 8 mps 708 mmHg 9%
15:00 +49°C° 0 mm 9 mps 708 mmHg 9%
16:00 +50°C° 0 mm 9 mps 707 mmHg 9%
17:00 +48°C° 0 mm 8 mps 707 mmHg 10%
18:00 +45°C° 0 mm 7 mps 707 mmHg 11%
19:00 +43°C° 0 mm 7 mps 707 mmHg 12%
20:00 +40°C° 0 mm 7 mps 707 mmHg 12%
21:00 +39°C° 0 mm 7 mps 708 mmHg 12%
22:00 +37°C° 0 mm 8 mps 708 mmHg 12%
23:00 +35°C° 0 mm 8 mps 708 mmHg 14%

Day after tomorrow, 10 August, Monday

Time Temperature Precipitation Wind Pressure Humidity
00:00 +34°C° 0 mm 8 mps 708 mmHg 16%
01:00 +33°C° 0 mm 8 mps 708 mmHg 18%
02:00 +33°C° 0 mm 9 mps 708 mmHg 18%
03:00 +32°C° 0 mm 10 mps 707 mmHg 17%
04:00 +32°C° 0 mm 11 mps 707 mmHg 17%
05:00 +33°C° 0 mm 12 mps 708 mmHg 16%
06:00 +33°C° 0 mm 13 mps 708 mmHg 15%
07:00 +34°C° 0 mm 14 mps 709 mmHg 15%
08:00 +38°C° 0 mm 14 mps 709 mmHg 12%
09:00 +41°C° 0 mm 15 mps 709 mmHg 9%
10:00 +45°C° 0 mm 15 mps 709 mmHg 6%
11:00 +47°C° 0 mm 15 mps 709 mmHg 5%
12:00 +49°C° 0 mm 15 mps 708 mmHg 5%
13:00 +51°C° 0 mm 15 mps 708 mmHg 4%
14:00 +50°C° 0 mm 15 mps 707 mmHg 4%
15:00 +50°C° 0 mm 15 mps 707 mmHg 5%
16:00 +50°C° 0 mm 15 mps 706 mmHg 5%
17:00 +47°C° 0 mm 13 mps 706 mmHg 6%
18:00 +44°C° 0 mm 12 mps 706 mmHg 6%
19:00 +42°C° 0 mm 11 mps 706 mmHg 7%
20:00 +39°C° 0 mm 11 mps 706 mmHg 9%
21:00 +38°C° 0 mm 11 mps 707 mmHg 10%
22:00 +37°C° 0 mm 12 mps 707 mmHg 12%
23:00 +36°C° 0 mm 11 mps 707 mmHg 12%

11 August, Tuesday

Time Temperature Precipitation Wind Pressure Humidity
00:00 +34°C° 0 mm 11 mps 706 mmHg 13%
01:00 +34°C° 0 mm 10 mps 706 mmHg 13%
02:00 +33°C° 0 mm 10 mps 706 mmHg 14%
03:00 +32°C° 0 mm 9 mps 706 mmHg 15%
04:00 +32°C° 0 mm 8 mps 706 mmHg 15%
05:00 +32°C° 0 mm 9 mps 706 mmHg 15%
06:00 +33°C° 0 mm 9 mps 707 mmHg 14%
07:00 +33°C° 0 mm 10 mps 707 mmHg 14%
08:00 +37°C° 0 mm 9 mps 708 mmHg 12%
09:00 +40°C° 0 mm 9 mps 708 mmHg 10%
10:00 +43°C° 0 mm 9 mps 708 mmHg 8%
11:00 +45°C° 0 mm 8 mps 708 mmHg 7%
12:00 +47°C° 0 mm 6 mps 708 mmHg 6%
13:00 +48°C° 0 mm 5 mps 707 mmHg 5%
14:00 +48°C° 0 mm 5 mps 707 mmHg 5%
15:00 +49°C° 0 mm 5 mps 706 mmHg 5%
16:00 +49°C° 0 mm 4 mps 706 mmHg 5%
17:00 +47°C° 0 mm 6 mps 706 mmHg 6%
18:00 +45°C° 0 mm 7 mps 706 mmHg 7%
19:00 +43°C° 0 mm 9 mps 706 mmHg 8%
20:00 +40°C° 0 mm 9 mps 706 mmHg 10%
21:00 +38°C° 0 mm 9 mps 706 mmHg 11%
22:00 +37°C° 0 mm 9 mps 706 mmHg 13%
23:00 +34°C° 0 mm 8 mps 706 mmHg 15%

12 August, Wednesday

Time Temperature Precipitation Wind Pressure Humidity
00:00 +33°C° 0 mm 7 mps 706 mmHg 17%
01:00 +32°C° 0 mm 6 mps 706 mmHg 19%
02:00 +30°C° 0 mm 5 mps 706 mmHg 19%
03:00 +29°C° 0 mm 5 mps 706 mmHg 20%
04:00 +28°C° 0 mm 5 mps 706 mmHg 21%
05:00 +29°C° 0 mm 5 mps 706 mmHg 19%
06:00 +29°C° 0 mm 5 mps 707 mmHg 17%
07:00 +30°C° 0 mm 6 mps 707 mmHg 16%
08:00 +34°C° 0 mm 6 mps 708 mmHg 13%
09:00 +37°C° 0 mm 5 mps 708 mmHg 11%
10:00 +41°C° 0 mm 5 mps 709 mmHg 9%
11:00 +43°C° 0 mm 5 mps 708 mmHg 8%
12:00 +46°C° 0 mm 5 mps 708 mmHg 7%
13:00 +48°C° 0 mm 4 mps 708 mmHg 5%
14:00 +47°C° 0 mm 3 mps 707 mmHg 5%
15:00 +48°C° 0 mm 3 mps 707 mmHg 5%
16:00 +48°C° 0 mm 2 mps 706 mmHg 4%
17:00 +45°C° 0 mm 2 mps 706 mmHg 5%
18:00 +42°C° 0 mm 2 mps 706 mmHg 6%
19:00 +39°C° 0 mm 2 mps 706 mmHg 7%
20:00 +38°C° 0 mm 3 mps 706 mmHg 8%
21:00 +37°C° 0 mm 4 mps 707 mmHg 8%
22:00 +36°C° 0 mm 5 mps 707 mmHg 9%
23:00 +35°C° 0 mm 5 mps 707 mmHg 10%

13 August, Thursday

Time Temperature Precipitation Wind Pressure Humidity
00:00 +33°C° 0 mm 6 mps 706 mmHg 12%
01:00 +32°C° 0 mm 6 mps 706 mmHg 13%
02:00 +30°C° 0 mm 5 mps 706 mmHg 14%
03:00 +29°C° 0 mm 4 mps 706 mmHg 16%
04:00 +27°C° 0 mm 3 mps 706 mmHg 17%
05:00 +28°C° 0 mm 4 mps 706 mmHg 16%
06:00 +29°C° 0 mm 4 mps 707 mmHg 15%
07:00 +30°C° 0 mm 5 mps 708 mmHg 14%
08:00 +34°C° 0 mm 4 mps 708 mmHg 12%
09:00 +37°C° 0 mm 4 mps 708 mmHg 10%
10:00 +40°C° 0 mm 3 mps 709 mmHg 7%
11:00 +44°C° 0 mm 3 mps 708 mmHg 6%
12:00 +46°C° 0 mm 3 mps 708 mmHg 5%
13:00 +48°C° 0 mm 3 mps 708 mmHg 4%
14:00 +48°C° 0 mm 3 mps 707 mmHg 4%
15:00 +50°C° 0 mm 3 mps 706 mmHg 4%
16:00 +51°C° 0 mm 3 mps 706 mmHg 4%
17:00 +47°C° 0 mm 3 mps 706 mmHg 5%
18:00 +44°C° 0 mm 3 mps 705 mmHg 7%
19:00 +41°C° 0 mm 4 mps 705 mmHg 8%
20:00 +40°C° 0 mm 5 mps 705 mmHg 9%
21:00 +39°C° 0 mm 5 mps 706 mmHg 11%
22:00 +38°C° 0 mm 6 mps 706 mmHg 12%
23:00 +36°C° 0 mm 6 mps 706 mmHg 14%
Show more